KE9LZ Weather Reports


time (UTC)temp
C
wind
direction
speed
KPH
gust
KPH
rain 1hr
cm
rain 24hr
cm
rain mn
cm
humidity
%
barometer
mb
20260503185004 18 212 20.9 37.0 0.00 0.00 0.00 48 1008.8
20260503184003 18 211 19.3 38.6 0.00 0.00 0.00 49 1009.1
20260503183003 17 216 20.9 41.8 0.00 0.00 0.00 52 1009.3
20260503181003 17 209 22.5 46.7 0.00 0.00 0.00 55 1009.6
20260503180004 17 189 14.5 32.2 0.00 0.00 0.00 55 1009.7
20260503174003 17 195 20.9 40.2 0.00 0.00 0.00 55 1010.0
20260503173003 16 203 19.3 41.8 0.00 0.00 0.00 54 1010.4
20260503172003 16 214 16.1 40.2 0.00 0.00 0.00 54 1010.3
20260503171004 16 207 20.9 40.2 0.00 0.00 0.00 54 1010.6
20260503081003 9 180 8.0 12.9 0.00 0.00 0.00 63 1014.4
20260503071004 8 171 6.4 12.9 0.00 0.00 0.00 71 1014.6
20260503055003 6 175 4.8 9.7 0.00 0.00 0.00 73 1015.8
20260503054003 5 167 3.2 8.0 0.00 0.00 0.00 74 1015.5
20260503052003 5 178 4.8 8.0 0.00 0.00 0.00 74 1016.1
20260503051004 5 142 4.8 8.0 0.00 0.00 0.00 74 1015.8
20260503045003 5 136 4.8 8.0 0.00 0.00 0.00 73 1015.9
20260503044004 5 153 4.8 8.0 0.00 0.00 0.00 73 1016.1
20260503043003 5 130 4.8 8.0 0.00 0.00 0.00 72 1016.0
20260503042004 5 133 4.8 11.3 0.00 0.00 0.00 71 1016.3
20260503041004 5 159 4.8 11.3 0.00 0.00 0.00 70 1016.6
20260503040003 5 154 6.4 11.3 0.00 0.00 0.00 69 1016.7
20260503035004 6 164 6.4 9.7 0.00 0.00 0.00 68 1016.5
20260503034004 5 144 4.8 9.7 0.00 0.00 0.00 68 1016.8
20260503033003 6 120 6.4 11.3 0.00 0.00 0.00 68 1016.9
20260503032003 6 164 8.0 11.3 0.00 0.00 0.00 67 1016.9
20260503031004 6 169 6.4 14.5 0.00 0.00 0.00 66 1017.0
20260503030003 6 149 8.0 11.3 0.00 0.00 0.00 65 1017.1
20260503025004 6 135 4.8 12.9 0.00 0.00 0.00 64 1017.3
20260503024003 6 142 8.0 11.3 0.00 0.00 0.00 63 1017.3
20260503023004 6 138 4.8 11.3 0.00 0.00 0.00 63 1017.5
20260503022004 6 143 8.0 14.5 0.00 0.00 0.00 62 1017.3
20260503021003 6 133 8.0 19.3 0.00 0.00 0.00 61 1017.6
20260503015003 7 139 9.7 16.1 0.00 0.00 0.00 59 1017.3
20260503014003 7 140 8.0 16.1 0.00 0.00 0.00 59 1017.4
20260503013004 7 140 8.0 22.5 0.00 0.00 0.00 58 1017.6
20260503012004 7 144 12.9 25.7 0.00 0.00 0.00 57 1017.5
20260503010003 8 146 12.9 16.1 0.00 0.00 0.00 57 1017.7
20260503005003 8 138 12.9 29.0 0.00 0.00 0.00 55 1017.4
20260503004003 9 140 11.3 20.9 0.00 0.00 0.00 54 1017.6
20260503003004 9 154 11.3 19.3 0.00 0.00 0.00 53 1017.6
20260503001003 10 137 14.5 24.1 0.00 0.00 0.00 52 1017.6
20260503000003 10 141 9.7 29.0 0.00 0.00 0.00 52 1017.4
20260502235003 11 140 11.3 27.4 0.00 0.00 0.00 50 1017.9
20260502234004 11 138 16.1 32.2 0.00 0.00 0.00 48 1017.7
20260502231003 12 145 14.5 25.7 0.00 0.00 0.00 50 1017.9
20260502230003 12 141 12.9 27.4 0.00 0.00 0.00 49 1018.1
20260502225003 14 152 14.5 27.4 0.00 0.00 0.00 37 1018.2
20260502224004 14 172 11.3 20.9 0.00 0.00 0.00 34 1018.3
20260502222004 14 211 9.7 24.1 0.00 0.00 0.00 34 1018.4
20260502221004 14 176 6.4 19.3 0.00 0.00 0.00 34 1018.4
20260502220004 14 184 9.7 24.1 0.00 0.00 0.00 34 1018.8
20260502215003 15 194 9.7 24.1 0.00 0.00 0.00 34 1018.8
20260502213004 14 194 8.0 14.5 0.00 0.00 0.00 36 1019.1
20260502212004 13 182 8.0 20.9 0.00 0.00 0.00 35 1019.1
20260502211003 13 172 6.4 20.9 0.00 0.00 0.00 36 1019.3
20260502210004 14 202 14.5 20.9 0.00 0.00 0.00 35 1019.4
20260502205004 14 131 9.7 16.1 0.00 0.00 0.00 37 1019.5
20260502202004 14 295 6.4 19.3 0.00 0.00 0.00 36 1020.3
20260502201004 14 190 11.3 24.1 0.00 0.00 0.00 36 1020.3
20260502200004 13 305 11.3 29.0 0.00 0.00 0.00 38 1020.7
20260502194003 12 250 8.0 32.2 0.00 0.00 0.00 35 1021.0
20260502193003 13 279 11.3 24.1 0.00 0.00 0.00 35 1021.1
20260502191003 12 345 9.7 22.5 0.00 0.00 0.00 35 1021.6
20260502190004 12 309 8.0 46.7 0.00 0.00 0.00 38 1021.8